Terminal Aerodrome Forecast
Issued by NWS

Home | Current Version | Previous Version | Text Only | Print | Product List | Glossary On
Versions: 1 2 3 4 5 6 7 8 9 10 11 12 13 14 15 16 17 18 19 20 21 22 23 24 25 26 27 28 29 30 31 32
000
FTUS42 KCAE 260200 AAA
TAFDNL
TAF AMD
KDNL 260245Z 2603/2624 21010KT P6SM SCT035 WS020/24035KT
     FM261000 24005KT 4SM BR SCT007 BKN015 WS020/24035KT
     FM261400 28012G22KT P6SM SCT035=

USA.gov is the U.S. government's official web portal to all federal, state and local government web resources and services.